Weather History for Greenville, MS

Change the Weather History Date:

Tuesday, March 25, 2014

  Actual Average Record
Temperature  
Mean Temperature 45 °F 57 °F  
Max Temperature 56 °F 68 °F 87 °F (1935)
Min Temperature 33 °F 46 °F 27 °F (1940)
Degree Days  
Heating Degree Days 20 9  
Month to date heating degree days 390 288  
Since 1 July heating degree days 2997 2597  
Cooling Degree Days 0 1  
Month to date cooling degree days 0 11  
Year to date cooling degree days 0 16  
Moisture  
Dew Point 27 °F    
Average Humidity 51    
Maximum Humidity 75    
Minimum Humidity 26    
Precipitation  
Precipitation 0.00 in 0.17 in 2.56 in (2009)
Month to date precipitation 1.96 3.45  
Year to date precipitation 6.26 13.44  
Sea Level Pressure  
Sea Level Pressure 30.27 in    
Wind  
Wind Speed 9 mph (NNW)    
Max Wind Speed 29 mph    
Max Gust Speed 39 mph    
Visibility 10 miles    
Events      
T = Trace of Precipitation, MM = Missing Value Source: NWS Daily Summary

Daily Weather History Graph

Daily Weather History Graph

Search for Another Location

Airport:

Trip Planner

Search our weather history database for the weather conditions in past years. The results will help you decide how hot, cold, wet, or windy it might be!

Date:

Astronomy

Mar. 25, 2014 Rise Set
Actual Time 7:00 AM CDT 7:19 PM CDT
Civil Twilight 6:36 AM CDT 7:44 PM CDT
Nautical Twilight 6:07 AM CDT 8:13 PM CDT
Astronomical Twilight 5:37 AM CDT 8:42 PM CDT
Moon 3:08 AM CDT (3/25) 2:04 PM CDT (3/25)
Length of Visible Light 13h 08m
Length of Day
12h 18m
Waning Crescent, 32% of the Moon is Illuminated
Mar 25
Waning Crescent
Mar 30
New
Apr 7
First Quarter
Apr 15
Full
Apr 22
Last Quarter

Hourly Weather History & Observations

Time (CDT) Temp. Windchill Dew Point Humidity Pressure Visibility Wind Dir Wind Speed Gust Speed Precip Events Conditions
12:53 AM 41.0 °F 38.0 °F 30.9 °F 67% 30.14 in 10.0 mi NNE 4.6 mph - N/A   Clear
1:53 AM 41.0 °F 37.1 °F 30.9 °F 67% 30.16 in 10.0 mi North 5.8 mph - N/A   Clear
2:53 AM 41.0 °F 37.1 °F 30.0 °F 65% 30.15 in 10.0 mi North 5.8 mph - N/A   Clear
3:53 AM 39.9 °F 36.7 °F 30.0 °F 68% 30.16 in 10.0 mi NNW 4.6 mph - N/A   Partly Cloudy
4:53 AM 39.0 °F 34.8 °F 28.9 °F 67% 30.17 in 10.0 mi NNW 5.8 mph - N/A   Clear
5:53 AM 37.9 °F 35.5 °F 28.0 °F 68% 30.19 in 10.0 mi NNW 3.5 mph - N/A   Clear
6:53 AM 33.1 °F 26.1 °F 27.0 °F 78% 30.22 in 10.0 mi North 8.1 mph - N/A   Clear
7:53 AM 39.9 °F 32.9 °F 28.9 °F 65% 30.27 in 9.0 mi NNW 11.5 mph - N/A   Clear
8:53 AM 45.0 °F 38.2 °F 34.0 °F 65% 30.31 in 9.0 mi North 15.0 mph 21.9 mph N/A   Clear
9:53 AM 48.9 °F - 28.9 °F 46% 30.33 in 10.0 mi North 16.1 mph - N/A   Clear
10:53 AM 51.1 °F - 26.1 °F 38% 30.34 in 10.0 mi North 16.1 mph 26.5 mph N/A   Clear
11:53 AM 53.1 °F - 25.0 °F 34% 30.34 in 10.0 mi NNW 15.0 mph - N/A   Clear
12:53 PM 55.9 °F - 25.0 °F 30% 30.32 in 10.0 mi NNW 15.0 mph 27.6 mph N/A   Clear
1:53 PM 55.0 °F - 24.1 °F 30% 30.32 in 10.0 mi NNW 19.6 mph 28.8 mph N/A   Clear
2:53 PM 55.0 °F - 25.0 °F 31% 30.31 in 10.0 mi NNW 18.4 mph 31.1 mph N/A   Partly Cloudy
3:53 PM 55.0 °F - 21.9 °F 28% 30.30 in 10.0 mi NNW 17.3 mph 28.8 mph N/A   Clear
4:53 PM 55.0 °F - 21.0 °F 27% 30.29 in 10.0 mi North 12.7 mph 20.7 mph N/A   Partly Cloudy
5:53 PM 54.0 °F - 21.0 °F 28% 30.28 in 10.0 mi NNW 13.8 mph - N/A   Clear
6:53 PM 51.1 °F - 21.9 °F 32% 30.29 in 10.0 mi North 11.5 mph - N/A   Clear
7:53 PM 48.0 °F - 24.1 °F 39% 30.27 in 10.0 mi North 4.6 mph - N/A   Clear
8:53 PM 44.1 °F - 25.0 °F 47% 30.29 in 10.0 mi Calm Calm - N/A   Clear
9:53 PM 39.9 °F - 27.0 °F 60% 30.30 in 10.0 mi Calm Calm - N/A   Clear
10:53 PM 39.0 °F - 27.0 °F 62% 30.31 in 10.0 mi Calm Calm - N/A   Clear
11:53 PM 37.0 °F - 28.0 °F 70% 30.31 in 10.0 mi Calm Calm - N/A   Clear